QPF
0.02 0.00 0.00 0.00 0.00 0.00 0.00 0.00 0.00 0.00 0.00 0.00 0.00 0.00 0.00 0.00 0.00 0.00 0.00 0.00 0.00 0.00 0.00 0.00 0.00 0.00 0.00 0.00 0.00 0.00 0.00 0.00 0.00 0.00 0.00 0.00 0.00 0.00 0.00 0.00 0.01 0.04 0.06 0.07 0.04 0.04 0.03 0.02 0.01 0.01 0.00 0.00 0.00 0.00
0.05 0.00 0.00 0.00 0.00 0.00 0.00 0.00 0.00 0.00 0.00 0.00 0.00 0.00 0.00 0.00 0.00 0.00 0.00 0.00 0.00 0.00 0.00 0.00 0.00 0.00 0.00 0.00 0.00 0.00 0.00 0.00 0.00 0.00 0.00 0.00 0.00 0.00 0.00 0.01 0.00 0.05 0.07 0.07 0.05 0.04 0.05 0.01 0.00 0.00 0.00 0.00 0.00 0.00
0.07 0.00 0.00 0.00 0.00 0.00 0.00 0.00 0.00 0.00 0.00 0.00 0.00 0.00 0.00 0.00 0.00 0.00 0.00 0.00 0.00 0.00 0.00 0.00 0.00 0.00 0.00 0.00 0.00 0.00 0.00 0.00 0.00 0.00 0.00 0.00 0.00 0.00 0.00 0.00 0.00 0.00 0.00 0.01 0.00 0.02 0.03 0.01 0.00 0.00 0.00 0.00 0.00 0.00
0.03 0.00 0.00 0.00 0.00 0.00 0.00 0.00 0.00 0.00 0.00 0.00 0.00 0.00 0.00 0.00 0.00 0.00 0.00 0.00 0.00 0.00 0.00 0.00 0.00 0.00 0.00 0.00 0.00 0.00 0.00 0.00 0.00 0.00 0.00 0.00 0.00 0.00 0.00 0.00 0.01 0.00 0.00 0.00 0.00 0.00 0.00 0.00 0.00 0.00 0.00 0.00 0.00 0.00
0.01 0.00 0.00 0.00 0.00 0.00 0.00 0.00 0.00 0.00 0.00 0.00 0.00 0.00 0.00 0.00 0.00 0.00 0.00 0.00 0.00 0.00 0.00 0.00 0.00 0.00 0.00 0.00 0.00 0.00 0.00 0.00 0.02 0.02 0.02 0.00 0.00 0.00 0.00 0.01 0.00 0.00 0.00 0.02 0.02 0.01 0.02 0.01 0.01 0.01 0.02 0.01 0.01 0.01
0.00 0.00 0.00 0.00 0.00 0.00 0.00 0.00 0.00 0.00 0.00 0.00 0.00 0.00 0.00 0.00 0.00 0.00 0.00 0.00 0.00 0.00 0.00 0.00 0.00 0.00 0.00 0.00 0.00 0.00 0.00 0.00 0.00 0.02 0.01 0.00 0.00 0.00 0.00 0.00 0.00 0.00 0.00 0.00 0.01 0.01 0.04 0.04 0.02 0.03 0.05 0.06 0.08 0.05
0.00 0.00 0.00 0.00 0.00 0.00 0.00 0.00 0.00 0.00 0.00 0.00 0.00 0.00 0.00 0.00 0.00 0.00 0.00 0.00 0.00 0.00 0.00 0.00 0.00 0.00 0.00 0.00 0.00 0.00 0.00 0.00 0.00 0.01 0.01 0.00 0.00 0.00 0.01 0.00 0.00 0.00 0.00 0.00 0.00 0.00 0.01 0.03 0.04 0.05 0.05 0.08 0.12 0.13
0.00 0.00 0.00 0.00 0.00 0.00 0.00 0.00 0.00 0.00 0.00 0.00 0.00 0.00 0.00 0.00 0.00 0.00 0.00 0.00 0.00 0.00 0.00 0.00 0.00 0.02 0.00 0.01 0.02 0.00 0.00 0.01 0.01 0.01 0.02 0.01 0.00 0.00 0.00 0.00 0.01 0.00 0.00 0.00 0.00 0.00 0.00 0.00 0.01 0.04 0.07 0.09 0.11 0.18
0.00 0.00 0.00 0.00 0.00 0.00 0.00 0.00 0.00 0.00 0.00 0.00 0.00 0.00 0.00 0.00 0.00 0.00 0.00 0.00 0.00 0.00 0.00 0.00 0.00 0.00 0.00 0.02 0.02 0.01 0.00 0.02 0.02 0.02 0.02 0.01 0.00 0.00 0.00 0.00 0.00 0.00 0.00 0.00 0.00 0.00 0.00 0.00 0.00 0.00 0.03 0.09 0.11 0.16
0.00 0.00 0.00 0.00 0.00 0.00 0.00 0.00 0.00 0.00 0.00 0.00 0.00 0.00 0.00 0.00 0.00 0.00 0.00 0.00 0.00 0.00 0.00 0.00 0.00 0.00 0.03 0.10 0.19 0.16 0.02 0.01 0.03 0.01 0.01 0.01 0.00 0.00 0.00 0.00 0.00 0.00 0.00 0.00 0.00 0.00 0.00 0.00 0.00 0.00 0.00 0.03 0.07 0.12
0.00 0.00 0.00 0.00 0.00 0.00 0.00 0.00 0.00 0.00 0.00 0.00 0.00 0.00 0.00 0.00 0.00 0.00 0.00 0.00 0.04 0.05 0.02 0.10 0.10 0.05 0.01 0.16 0.28 0.19 0.07 0.05 0.04 0.03 0.03 0.06 0.06 0.01 0.00 0.00 0.00 0.00 0.00 0.00 0.00 0.00 0.00 0.00 0.00 0.00 0.00 0.00 0.01 0.05
0.00 0.00 0.00 0.00 0.00 0.00 0.00 0.00 0.00 0.00 0.00 0.00 0.00 0.00 0.00 0.00 0.00 0.00 0.02 0.09 0.35 0.19 0.18 0.41 0.07 0.01 0.02 0.10 0.23 0.14 0.26 0.17 0.17 0.24 0.13 0.06 0.04 0.02 0.00 0.00 0.00 0.00 0.00 0.00 0.00 0.00 0.00 0.00 0.00 0.00 0.00 0.00 0.00 0.01
0.00 0.00 0.00 0.00 0.00 0.00 0.00 0.00 0.00 0.00 0.00 0.00 0.00 0.00 0.00 0.01 0.01 0.03 0.05 0.10 0.31 0.20 0.18 0.06 0.03 0.01 0.01 0.04 0.09 0.25 0.18 0.08 0.17 0.18 0.13 0.05 0.08 0.05 0.02 0.01 0.00 0.00 0.00 0.01 0.01 0.00 0.00 0.00 0.00 0.00 0.00 0.00 0.00 0.00
0.00 0.00 0.00 0.00 0.00 0.00 0.00 0.00 0.00 0.00 0.00 0.00 0.01 0.01 0.00 0.02 0.03 0.05 0.20 0.13 0.25 0.32 0.05 0.02 0.06 0.05 0.04 0.02 0.03 0.09 0.07 0.05 0.07 0.06 0.02 0.10 0.19 0.14 0.07 0.02 0.00 0.00 0.00 0.00 0.01 0.01 0.00 0.00 0.00 0.00 0.00 0.00 0.00 0.00
0.00 0.00 0.00 0.00 0.00 0.00 0.00 0.00 0.00 0.00 0.00 0.00 0.00 0.00 0.00 0.02 0.04 0.11 0.19 0.14 0.23 0.05 0.01 0.00 0.00 0.01 0.01 0.01 0.03 0.05 0.12 0.09 0.04 0.03 0.03 0.08 0.09 0.07 0.05 0.01 0.00 0.00 0.00 0.00 0.01 0.02 0.00 0.00 0.00 0.00 0.00 0.00 0.00 0.00
0.00 0.00 0.00 0.00 0.00 0.00 0.00 0.00 0.00 0.00 0.00 0.00 0.00 0.00 0.00 0.04 0.11 0.17 0.04 0.00 0.00 0.00 0.00 0.00 0.00 0.01 0.01 0.03 0.08 0.09 0.05 0.04 0.03 0.02 0.01 0.02 0.01 0.00 0.00 0.00 0.00 0.00 0.00 0.00 0.01 0.10 0.03 0.00 0.00 0.00 0.00 0.00 0.00 0.00
0.00 0.00 0.00 0.00 0.00 0.00 0.00 0.00 0.00 0.00 0.00 0.00 0.00 0.00 0.00 0.02 0.04 0.04 0.00 0.00 0.00 0.00 0.00 0.00 0.00 0.01 0.04 0.04 0.07 0.06 0.03 0.02 0.01 0.00 0.00 0.00 0.02 0.00 0.00 0.00 0.00 0.00 0.00 0.00 0.00 0.00 0.00 0.00 0.00 0.00 0.00 0.00 0.00 0.00
0.00 0.00 0.00 0.00 0.00 0.00 0.00 0.00 0.00 0.00 0.00 0.00 0.02 0.01 0.01 0.01 0.00 0.00 0.00 0.00 0.00 0.00 0.00 0.00 0.00 0.00 0.00 0.01 0.05 0.05 0.02 0.00 0.00 0.00 0.00 0.01 0.02 0.01 0.00 0.00 0.00 0.00 0.00 0.01 0.01 0.00 0.00 0.00 0.00 0.00 0.00 0.00 0.00 0.00
0.00 0.00 0.00 0.00 0.00 0.00 0.00 0.00 0.00 0.00 0.00 0.00 0.01 0.03 0.05 0.02 0.01 0.03 0.00 0.00 0.00 0.00 0.00 0.00 0.02 0.02 0.01 0.02 0.04 0.02 0.00 0.01 0.02 0.02 0.02 0.03 0.06 0.04 0.04 0.03 0.00 0.00 0.00 0.00 0.03 0.02 0.01 0.00 0.00 0.00 0.00 0.00 0.00 0.00
0.00 0.00 0.00 0.00 0.00 0.00 0.00 0.00 0.00 0.00 0.00 0.00 0.03 0.08 0.18 0.01 0.03 0.02 0.00 0.00 0.00 0.00 0.00 0.00 0.03 0.02 0.01 0.04 0.05 0.05 0.05 0.06 0.05 0.05 0.06 0.08 0.14 0.06 0.04 0.02 0.00 0.00 0.00 0.03 0.18 0.09 0.04 0.01 0.00 0.00 0.00 0.00 0.00 0.00
0.00 0.00 0.00 0.00 0.00 0.00 0.00 0.00 0.00 0.01 0.01 0.05 0.06 0.03 0.02 0.00 0.00 0.00 0.00 0.00 0.00 0.00 0.00 0.00 0.00 0.00 0.00 0.02 0.01 0.01 0.02 0.04 0.05 0.06 0.07 0.06 0.02 0.00 0.00 0.00 0.03 0.01 0.01 0.04 0.08 0.05 0.03 0.03 0.02 0.01 0.00 0.00 0.00 0.00
0.00 0.00 0.00 0.00 0.00 0.00 0.00 0.00 0.00 0.00 0.01 0.07 0.28 0.04 0.01 0.00 0.00 0.00 0.00 0.00 0.00 0.00 0.00 0.00 0.00 0.00 0.00 0.01 0.00 0.01 0.01 0.03 0.03 0.03 0.03 0.03 0.02 0.01 0.00 0.03 0.08 0.15 0.02 0.00 0.00 0.05 0.20 0.10 0.01 0.00 0.00 0.00 0.00 0.00
0.00 0.00 0.00 0.01 0.01 0.00 0.00 0.00 0.00 0.00 0.12 0.12 0.02 0.02 0.00 0.00 0.00 0.00 0.00 0.00 0.00 0.00 0.00 0.00 0.00 0.00 0.00 0.00 0.01 0.00 0.00 0.02 0.01 0.00 0.01 0.01 0.01 0.00 0.00 0.00 0.00 0.00 0.00 0.00 0.01 0.11 0.13 0.02 0.01 0.01 0.00 0.00 0.00 0.00
0.00 0.00 0.01 0.01 0.00 0.00 0.00 0.00 0.07 0.14 0.05 0.14 0.05 0.01 0.00 0.00 0.00 0.00 0.00 0.00 0.00 0.00 0.00 0.00 0.00 0.00 0.00 0.00 0.00 0.00 0.00 0.00 0.00 0.00 0.00 0.00 0.03 0.01 0.00 0.00 0.00 0.00 0.00 0.00 0.00 0.00 0.00 0.03 0.02 0.00 0.00 0.00 0.00 0.00
0.00 0.00 0.00 0.00 0.00 0.00 0.02 0.05 0.11 0.06 0.01 0.00 0.03 0.04 0.00 0.00 0.00 0.00 0.00 0.00 0.00 0.00 0.00 0.00 0.00 0.00 0.00 0.00 0.00 0.00 0.00 0.00 0.00 0.00 0.00 0.00 0.00 0.00 0.00 0.00 0.00 0.00 0.00 0.00 0.02 0.02 0.06 0.10 0.05 0.00 0.00 0.00 0.00 0.00
0.00 0.00 0.00 0.00 0.00 0.00 0.00 0.06 0.11 0.05 0.00 0.00 0.01 0.04 0.01 0.00 0.00 0.00 0.00 0.00 0.00 0.00 0.00 0.00 0.00 0.00 0.00 0.00 0.00 0.00 0.00 0.00 0.00 0.00 0.00 0.00 0.00 0.00 0.00 0.00 0.00 0.00 0.00 0.00 0.02 0.02 0.02 0.01 0.00 0.00 0.00 0.00 0.00 0.00
0.00 0.00 0.00 0.00 0.00 0.00 0.06 0.16 0.15 0.01 0.00 0.00 0.02 0.05 0.08 0.01 0.00 0.00 0.00 0.00 0.00 0.00 0.00 0.00 0.00 0.00 0.00 0.00 0.00 0.00 0.00 0.00 0.00 0.00 0.00 0.00 0.00 0.00 0.00 0.00 0.00 0.00 0.00 0.00 0.00 0.00 0.01 0.00 0.00 0.00 0.00 0.00 0.00 0.00
0.00 0.00 0.00 0.00 0.00 0.00 0.03 0.04 0.01 0.02 0.01 0.00 0.00 0.01 0.03 0.00 0.00 0.00 0.00 0.00 0.00 0.00 0.00 0.00 0.00 0.00 0.00 0.00 0.00 0.00 0.00 0.00 0.00 0.00 0.00 0.00 0.00 0.00 0.00 0.00 0.00 0.00 0.00 0.00 0.00 0.00 0.00 0.00 0.00 0.00 0.00 0.00 0.00 0.00
0.00 0.00 0.00 0.00 0.00 0.00 0.05 0.01 0.04 0.19 0.05 0.01 0.02 0.00 0.00 0.00 0.00 0.00 0.00 0.00 0.00 0.00 0.00 0.00 0.00 0.00 0.00 0.00 0.00 0.00 0.00 0.00 0.00 0.00 0.00 0.00 0.00 0.00 0.00 0.00 0.00 0.00 0.00 0.00 0.00 0.00 0.00 0.00 0.00 0.00 0.00 0.00 0.00 0.00
0.00 0.00 0.00 0.00 0.00 0.04 0.08 0.02 0.00 0.01 0.01 0.01 0.00 0.00 0.00 0.00 0.00 0.00 0.00 0.00 0.00 0.00 0.00 0.00 0.00 0.00 0.00 0.00 0.00 0.00 0.00 0.00 0.00 0.00 0.00 0.00 0.00 0.00 0.00 0.00 0.00 0.00 0.00 0.00 0.00 0.00 0.00 0.00 0.00 0.00 0.00 0.00 0.00 0.00
0.00 0.00 0.00 0.00 0.01 0.12 0.21 0.06 0.00 0.02 0.05 0.08 0.05 0.00 0.00 0.00 0.00 0.00 0.00 0.00 0.00 0.00 0.00 0.00 0.00 0.00 0.00 0.00 0.00 0.00 0.00 0.00 0.00 0.00 0.00 0.00 0.00 0.00 0.00 0.00 0.00 0.00 0.00 0.00 0.00 0.00 0.00 0.00 0.00 0.00 0.00 0.00 0.00 0.00
0.00 0.00 0.00 0.00 0.00 0.02 0.01 0.00 0.00 0.05 0.20 0.23 0.13 0.04 0.01 0.01 0.00 0.00 0.00 0.00 0.00 0.00 0.00 0.00 0.00 0.00 0.00 0.00 0.00 0.00 0.00 0.00 0.00 0.00 0.00 0.00 0.00 0.00 0.00 0.00 0.00 0.00 0.00 0.00 0.00 0.00 0.00 0.00 0.00 0.00 0.00 0.00 0.00 0.00
0.00 0.00 0.00 0.00 0.01 0.01 0.02 0.10 0.02 0.00 0.00 0.09 0.09 0.01 0.00 0.00 0.01 0.00 0.00 0.00 0.00 0.00 0.00 0.00 0.00 0.00 0.00 0.00 0.00 0.00 0.00 0.00 0.00 0.00 0.00 0.00 0.00 0.00 0.00 0.00 0.00 0.00 0.00 0.00 0.00 0.00 0.00 0.00 0.00 0.00 0.00 0.00 0.00 0.00
MSLP
1022.67 1022.82 1022.77 1022.81 1022.55 1022.19 1022.10 1021.97 1021.75 1021.48 1021.26 1020.90 1020.66 1020.50 1020.31 1020.06 1019.86 1019.51 1018.15 1017.37 1017.47 1016.87 1016.39 1015.95 1015.94 1016.31 1016.82 1017.03 1017.00 1017.23 1017.61 1018.14 1018.68 1019.57 1020.40 1020.95 1021.37 1021.69 1021.58 1020.56 1020.19 1020.02 1019.94 1019.33 1018.87 1018.76 1017.98 1017.04 1015.43 1016.24 1017.04 1016.37 1016.09 1015.83
1022.29 1022.59 1022.51 1022.43 1022.35 1022.06 1021.97 1021.85 1021.61 1021.42 1021.25 1020.95 1020.75 1020.57 1020.43 1020.34 1020.12 1019.97 1018.59 1017.33 1017.39 1017.39 1016.41 1016.07 1015.78 1015.93 1016.15 1016.45 1016.80 1017.13 1018.07 1018.51 1019.25 1020.06 1021.03 1021.76 1022.23 1022.33 1022.49 1021.73 1021.03 1020.79 1021.42 1021.23 1020.52 1019.63 1019.17 1018.77 1018.44 1018.06 1017.91 1017.75 1017.09 1016.96
1022.02 1022.33 1022.18 1021.96 1021.91 1021.73 1021.75 1021.64 1021.42 1021.24 1021.25 1021.03 1020.90 1020.79 1020.71 1020.55 1020.35 1020.29 1019.65 1018.50 1017.74 1016.97 1015.86 1015.33 1015.17 1015.40 1015.42 1015.53 1015.85 1016.80 1017.63 1018.29 1019.11 1019.58 1020.78 1021.81 1022.46 1022.73 1022.62 1022.17 1021.83 1020.92 1020.85 1020.80 1020.61 1019.59 1019.58 1019.33 1018.99 1018.78 1018.84 1018.40 1017.87 1017.35
1021.76 1022.20 1022.08 1021.80 1021.72 1021.52 1021.52 1021.44 1021.30 1021.08 1021.08 1020.96 1020.79 1020.71 1020.60 1020.43 1020.34 1020.28 1019.77 1018.63 1018.14 1017.62 1016.57 1014.92 1014.29 1014.65 1014.75 1014.98 1015.67 1016.25 1016.91 1017.70 1018.51 1019.40 1020.11 1020.84 1021.69 1022.05 1022.14 1022.06 1021.80 1020.81 1020.89 1021.05 1020.76 1020.31 1020.11 1019.25 1019.47 1019.50 1019.20 1018.87 1018.08 1017.34
1021.52 1021.95 1022.05 1021.68 1021.62 1021.37 1021.30 1021.21 1021.11 1020.92 1020.81 1020.77 1020.68 1020.62 1020.65 1020.49 1020.17 1019.83 1019.34 1018.37 1017.82 1018.13 1017.19 1015.57 1014.62 1013.89 1014.18 1014.71 1015.29 1015.80 1016.45 1017.47 1018.56 1019.02 1019.49 1020.09 1020.73 1021.27 1021.52 1021.87 1021.35 1020.44 1020.51 1020.88 1020.81 1020.50 1020.61 1020.27 1019.91 1019.58 1019.09 1018.56 1017.90 1017.27
1021.14 1021.53 1021.65 1021.51 1021.37 1021.22 1021.13 1021.03 1020.88 1020.71 1020.61 1020.63 1020.53 1020.33 1020.29 1020.32 1020.23 1019.49 1018.50 1018.00 1017.83 1017.94 1017.80 1015.84 1013.44 1013.16 1013.36 1014.03 1014.73 1015.33 1016.04 1016.71 1017.36 1017.96 1018.12 1018.22 1018.42 1019.66 1020.57 1020.72 1019.56 1019.33 1019.43 1019.93 1020.16 1020.28 1020.32 1019.79 1019.41 1019.04 1018.42 1017.81 1017.43 1017.05
1020.91 1021.09 1021.15 1021.15 1021.13 1020.99 1020.87 1020.79 1020.66 1020.49 1020.35 1020.38 1020.29 1020.17 1020.19 1020.12 1020.11 1019.35 1018.95 1018.72 1018.89 1018.58 1018.15 1016.47 1013.85 1012.67 1012.75 1013.40 1013.91 1014.51 1015.09 1015.95 1016.51 1016.72 1016.91 1017.19 1017.93 1018.84 1019.22 1019.77 1018.96 1018.51 1018.36 1019.08 1019.31 1019.57 1019.54 1019.32 1019.21 1018.94 1018.44 1017.77 1017.25 1016.70
1020.68 1020.86 1020.87 1020.79 1020.79 1020.72 1020.62 1020.48 1020.49 1020.26 1020.11 1020.12 1020.08 1020.07 1019.95 1019.90 1019.77 1019.02 1017.59 1017.89 1018.79 1019.08 1018.46 1016.66 1013.75 1012.83 1012.61 1013.26 1013.91 1014.03 1014.63 1015.12 1015.51 1015.85 1015.96 1016.46 1017.56 1018.31 1018.46 1017.94 1017.96 1017.76 1017.74 1017.96 1018.35 1018.31 1018.27 1018.45 1018.70 1018.68 1018.36 1017.75 1017.13 1016.68
1020.47 1020.59 1020.59 1020.57 1020.51 1020.41 1020.30 1020.19 1020.13 1020.00 1020.00 1020.09 1020.07 1019.92 1019.75 1019.63 1018.48 1017.75 1017.99 1018.34 1018.61 1019.19 1018.23 1016.04 1014.15 1012.83 1012.24 1012.62 1013.53 1013.73 1014.00 1014.32 1014.53 1014.74 1015.14 1015.93 1017.46 1017.72 1016.71 1016.71 1017.15 1017.03 1016.82 1016.65 1016.83 1016.92 1017.45 1017.52 1017.87 1018.19 1018.15 1017.44 1017.03 1016.59
1020.39 1020.39 1020.31 1020.29 1020.17 1020.07 1020.02 1019.96 1019.90 1019.86 1019.89 1019.87 1019.94 1019.55 1018.44 1017.49 1017.58 1017.93 1018.38 1018.39 1018.67 1018.50 1018.15 1016.62 1014.93 1013.77 1014.05 1014.08 1013.32 1014.09 1014.09 1013.49 1013.35 1013.65 1014.04 1015.44 1016.15 1015.81 1015.35 1015.30 1015.86 1016.01 1016.08 1016.03 1016.10 1016.33 1016.60 1016.71 1016.99 1017.30 1017.49 1017.54 1017.13 1016.65
1020.15 1020.18 1020.13 1020.01 1019.83 1019.69 1019.62 1019.64 1019.67 1019.72 1019.83 1019.73 1018.93 1017.89 1017.47 1017.50 1017.49 1017.49 1017.30 1017.43 1017.22 1017.21 1016.53 1015.98 1015.22 1014.09 1013.55 1014.02 1014.58 1014.61 1013.96 1013.19 1013.65 1013.72 1013.95 1014.67 1014.77 1014.53 1014.45 1014.72 1014.86 1015.13 1015.48 1015.74 1015.73 1015.82 1015.84 1015.87 1016.08 1016.46 1016.74 1016.90 1016.81 1016.50
1019.79 1019.89 1019.89 1019.66 1019.45 1019.21 1019.06 1019.15 1019.41 1019.49 1018.56 1018.96 1018.94 1017.56 1016.66 1016.86 1016.52 1016.27 1015.97 1015.95 1016.83 1016.75 1016.21 1015.68 1014.43 1013.48 1013.06 1013.67 1014.41 1014.76 1014.66 1014.36 1014.81 1015.25 1014.97 1015.25 1014.74 1014.46 1014.31 1014.40 1014.43 1014.61 1014.83 1015.24 1015.55 1015.48 1015.49 1015.49 1015.39 1015.55 1015.94 1016.15 1016.09 1016.13
1019.64 1019.62 1019.51 1019.40 1019.15 1018.93 1018.78 1018.95 1019.04 1018.75 1018.66 1017.61 1018.11 1016.70 1015.67 1015.41 1015.63 1015.67 1016.02 1016.11 1016.68 1016.25 1015.46 1014.45 1013.69 1012.61 1012.95 1013.64 1014.54 1015.01 1015.07 1015.06 1015.53 1015.40 1016.04 1016.53 1016.28 1015.41 1014.55 1014.37 1014.06 1013.94 1014.17 1014.80 1015.31 1015.24 1015.24 1015.13 1015.02 1014.99 1015.35 1015.32 1015.38 1015.30
1019.45 1019.32 1019.24 1019.07 1018.93 1018.95 1018.97 1019.01 1019.05 1019.32 1019.30 1017.65 1016.03 1015.59 1014.96 1014.60 1014.83 1015.92 1016.06 1015.74 1015.11 1014.05 1013.30 1013.38 1013.05 1012.56 1013.22 1014.14 1014.73 1014.70 1014.67 1014.86 1015.22 1015.93 1016.67 1016.99 1016.79 1016.58 1015.70 1014.77 1013.88 1014.21 1014.48 1014.20 1014.60 1014.91 1014.52 1014.80 1014.72 1014.55 1014.90 1014.77 1014.81 1014.98
1019.16 1018.87 1018.69 1018.25 1018.48 1018.71 1018.80 1018.81 1018.97 1019.08 1018.17 1016.21 1014.51 1013.97 1013.53 1014.72 1015.18 1015.38 1014.62 1014.29 1013.15 1012.15 1012.15 1011.90 1011.49 1012.35 1013.48 1014.05 1014.35 1014.47 1014.48 1015.35 1016.28 1016.74 1016.70 1016.63 1016.21 1016.10 1015.45 1014.69 1014.18 1013.96 1013.82 1014.32 1014.48 1015.27 1014.30 1014.82 1014.52 1014.35 1014.37 1014.53 1014.67 1014.87
1018.69 1018.20 1018.02 1018.14 1018.36 1018.42 1018.50 1018.65 1018.90 1018.21 1016.48 1014.98 1013.71 1012.65 1012.35 1013.16 1013.59 1013.83 1013.41 1012.35 1011.43 1010.96 1010.59 1011.14 1012.09 1012.65 1013.39 1013.88 1014.23 1014.80 1015.11 1015.67 1015.99 1015.89 1015.63 1015.85 1015.77 1015.41 1014.87 1014.43 1013.97 1013.78 1013.76 1014.13 1014.76 1014.81 1015.27 1014.32 1014.06 1014.22 1014.10 1014.21 1014.39 1014.59
1018.60 1017.84 1018.01 1018.35 1018.51 1018.46 1018.38 1018.20 1017.61 1016.59 1014.98 1013.36 1012.16 1011.90 1012.45 1012.59 1012.78 1012.30 1011.64 1011.38 1011.07 1011.43 1011.53 1011.78 1012.45 1013.21 1013.75 1014.14 1014.84 1015.33 1015.59 1015.42 1015.09 1014.88 1014.75 1014.93 1015.00 1014.93 1014.69 1014.37 1013.97 1013.78 1013.83 1014.24 1014.36 1014.41 1014.13 1013.98 1014.01 1014.41 1014.51 1014.55 1014.55 1014.78
1018.04 1018.11 1018.26 1018.45 1018.48 1018.07 1017.55 1017.65 1016.01 1014.13 1013.17 1012.45 1012.11 1012.18 1012.45 1011.83 1011.85 1011.96 1011.68 1011.51 1011.56 1011.69 1011.99 1012.45 1012.82 1013.24 1013.95 1014.57 1015.03 1015.25 1015.00 1014.73 1014.52 1014.47 1014.49 1014.69 1014.70 1014.89 1014.67 1014.36 1014.04 1013.83 1013.71 1013.99 1014.31 1014.65 1014.26 1014.19 1014.16 1014.20 1014.57 1014.90 1014.71 1015.17
1017.95 1017.98 1018.25 1018.47 1018.73 1018.51 1016.24 1015.32 1014.56 1013.03 1011.53 1011.47 1011.83 1012.57 1013.09 1012.41 1011.99 1012.03 1011.75 1011.60 1011.80 1011.83 1012.05 1012.33 1013.14 1013.85 1014.14 1014.46 1014.81 1014.72 1014.71 1014.84 1014.81 1014.83 1014.91 1014.79 1014.79 1014.87 1015.19 1014.85 1014.32 1014.03 1013.85 1013.82 1014.23 1014.43 1014.49 1014.33 1014.23 1013.98 1014.09 1014.43 1014.73 1015.07
1017.42 1017.03 1017.55 1018.08 1018.60 1017.40 1015.17 1013.04 1012.45 1012.04 1011.39 1011.49 1012.59 1013.57 1013.79 1013.06 1012.47 1012.29 1011.51 1011.19 1011.10 1011.60 1011.96 1012.67 1013.21 1013.47 1013.91 1014.35 1014.47 1014.53 1014.53 1014.69 1014.76 1014.70 1014.54 1014.66 1014.90 1015.45 1014.83 1014.41 1014.43 1014.54 1014.69 1014.67 1014.81 1015.87 1015.32 1015.06 1014.47 1014.52 1014.63 1014.81 1015.32 1015.79
1016.55 1016.79 1017.43 1017.73 1017.71 1016.58 1014.53 1012.44 1011.53 1011.50 1011.72 1012.57 1013.17 1013.18 1012.69 1012.31 1011.85 1011.77 1011.58 1011.27 1011.38 1011.70 1012.00 1012.45 1012.85 1013.11 1013.39 1013.73 1014.00 1014.19 1014.21 1014.43 1014.65 1014.58 1014.58 1014.68 1014.70 1014.58 1015.13 1015.37 1015.55 1015.68 1015.50 1015.79 1016.27 1016.58 1016.28 1016.50 1016.02 1015.49 1015.25 1015.56 1015.67 1016.03
1016.37 1016.60 1016.50 1016.94 1015.78 1014.01 1013.09 1011.55 1011.00 1010.89 1011.57 1012.20 1012.40 1012.65 1012.67 1011.76 1011.51 1011.41 1011.50 1011.38 1011.39 1011.51 1011.91 1012.35 1012.79 1012.96 1013.03 1013.38 1013.63 1013.78 1013.88 1014.13 1014.33 1014.44 1014.71 1014.73 1014.92 1015.16 1015.41 1015.39 1015.22 1016.27 1015.86 1016.19 1016.79 1016.85 1017.05 1016.79 1016.60 1016.01 1015.57 1015.79 1016.09 1016.37
1016.25 1015.93 1015.27 1014.37 1014.02 1012.64 1011.51 1010.31 1010.43 1010.31 1011.64 1011.97 1011.99 1011.99 1011.09 1011.03 1011.12 1011.09 1011.15 1011.25 1011.40 1011.56 1011.97 1012.31 1012.41 1012.43 1012.57 1012.62 1013.11 1013.53 1013.48 1013.58 1013.98 1014.39 1014.94 1015.44 1015.29 1015.44 1015.60 1015.55 1015.27 1015.27 1015.48 1016.21 1016.45 1016.82 1016.80 1016.87 1016.54 1016.42 1016.03 1016.26 1016.45 1016.39
1015.43 1014.95 1013.51 1012.64 1012.32 1011.81 1010.77 1010.29 1010.69 1011.81 1011.56 1011.85 1011.36 1010.62 1010.38 1010.19 1010.59 1010.87 1010.82 1010.95 1011.10 1011.47 1011.89 1011.93 1012.04 1012.11 1012.40 1012.60 1013.28 1013.78 1013.63 1013.38 1014.10 1014.65 1015.06 1015.50 1015.66 1015.87 1015.85 1015.81 1015.68 1015.36 1015.78 1016.43 1016.55 1017.17 1017.23 1016.78 1016.56 1016.33 1016.36 1016.24 1016.17 1016.35
1015.48 1014.45 1013.43 1012.45 1011.46 1010.68 1010.55 1010.90 1011.58 1011.91 1011.26 1010.53 1010.89 1010.81 1010.07 1009.70 1009.88 1009.81 1010.28 1010.75 1010.97 1011.27 1011.59 1011.73 1011.91 1012.10 1012.62 1013.04 1013.42 1013.76 1013.83 1014.02 1014.48 1014.75 1014.90 1015.06 1015.61 1015.71 1015.91 1015.82 1015.76 1015.81 1016.27 1016.49 1016.93 1017.15 1017.29 1016.94 1016.94 1017.07 1016.42 1016.55 1016.63 1016.84
1014.69 1012.82 1012.21 1010.56 1009.96 1009.86 1010.25 1011.25 1012.01 1011.48 1010.71 1010.13 1010.55 1011.08 1010.62 1009.75 1009.75 1009.56 1009.86 1010.43 1010.88 1011.35 1011.71 1011.99 1012.17 1012.40 1012.88 1013.23 1013.80 1014.16 1014.42 1014.58 1014.85 1015.18 1015.39 1015.43 1015.61 1015.86 1016.20 1016.25 1016.42 1016.55 1016.87 1016.97 1017.10 1017.09 1017.32 1017.18 1017.01 1016.98 1017.16 1017.20 1017.25 1017.35
1013.01 1011.13 1009.87 1009.34 1009.01 1009.50 1011.31 1011.57 1011.41 1011.77 1010.67 1009.99 1010.43 1010.87 1010.57 1010.15 1009.38 1009.70 1009.98 1010.27 1010.94 1011.54 1011.94 1012.11 1012.42 1012.71 1013.06 1013.39 1013.84 1014.13 1014.44 1014.83 1015.19 1015.49 1015.62 1015.81 1015.93 1016.12 1016.43 1016.74 1017.15 1017.28 1017.31 1017.04 1017.27 1017.33 1017.36 1017.37 1017.50 1017.39 1017.41 1017.43 1017.64 1017.90
1010.97 1009.55 1008.69 1008.27 1008.17 1008.42 1009.77 1010.21 1010.84 1010.81 1010.15 1009.40 1009.79 1009.99 1009.93 1009.18 1009.29 1009.53 1010.21 1010.70 1011.03 1011.38 1011.82 1012.27 1012.59 1012.97 1013.28 1013.53 1013.73 1013.88 1014.22 1014.46 1014.87 1015.20 1015.49 1015.89 1016.19 1016.53 1016.80 1017.05 1017.31 1017.43 1017.57 1017.52 1017.37 1017.35 1017.48 1017.49 1017.45 1017.44 1017.63 1017.90 1017.94 1017.97
1009.66 1008.59 1008.32 1008.13 1008.08 1008.38 1009.67 1009.81 1010.55 1010.37 1009.97 1009.95 1009.65 1008.92 1008.90 1008.68 1009.20 1009.62 1010.19 1010.54 1010.75 1011.01 1011.43 1011.85 1012.17 1012.70 1013.13 1013.47 1013.80 1014.01 1013.97 1014.05 1014.35 1014.65 1015.14 1015.79 1016.23 1016.63 1016.62 1016.83 1017.16 1017.48 1017.51 1017.77 1017.89 1017.89 1017.90 1017.85 1017.82 1017.78 1017.87 1018.29 1018.43 1018.39
1008.13 1007.79 1007.54 1007.34 1007.89 1009.37 1010.21 1010.26 1010.20 1010.01 1009.77 1009.62 1008.97 1008.53 1008.69 1008.81 1009.13 1009.55 1009.98 1010.29 1010.40 1010.57 1010.99 1011.38 1011.78 1012.04 1012.51 1013.07 1013.78 1014.29 1014.49 1014.54 1014.62 1014.51 1014.92 1015.59 1016.12 1016.52 1016.65 1016.76 1016.82 1016.99 1017.21 1017.52 1017.75 1017.98 1018.02 1018.05 1018.02 1017.93 1018.08 1018.30 1018.42 1018.54
1006.38 1006.29 1006.39 1006.88 1008.70 1009.20 1008.85 1008.60 1009.19 1010.39 1010.20 1009.84 1009.34 1008.74 1008.78 1009.20 1009.53 1009.61 1009.82 1010.08 1010.22 1010.49 1010.97 1011.30 1011.70 1012.10 1012.42 1012.91 1013.55 1014.09 1014.82 1015.35 1015.47 1015.52 1015.41 1015.74 1016.26 1016.62 1016.81 1016.89 1016.94 1017.03 1017.13 1017.21 1017.32 1017.53 1017.66 1017.77 1017.93 1018.13 1018.39 1018.48 1018.47 1018.54
1005.25 1005.23 1005.41 1006.61 1008.21 1008.75 1008.77 1008.96 1009.14 1009.43 1009.79 1011.13 1010.75 1009.90 1009.05 1009.29 1009.41 1009.60 1009.65 1009.81 1010.10 1010.46 1011.14 1011.13 1011.72 1012.48 1012.96 1013.43 1014.01 1014.27 1014.77 1015.74 1016.29 1016.58 1016.50 1016.41 1016.70 1017.01 1017.11 1016.89 1016.83 1017.00 1017.11 1017.15 1017.30 1017.53 1017.70 1017.90 1018.10 1018.15 1018.31 1018.42 1018.52 1018.57
1004.51 1004.35 1004.88 1006.27 1007.91 1008.67 1008.94 1008.32 1008.13 1007.83 1009.16 1010.15 1009.85 1009.39 1008.52 1008.39 1009.12 1009.39 1009.59 1009.79 1009.88 1009.83 1010.63 1011.36 1012.20 1012.87 1013.49 1014.09 1015.03 1015.64 1016.16 1016.79 1017.15 1017.37 1017.45 1017.42 1017.49 1017.62 1017.69 1017.53 1017.33 1017.28 1017.28 1017.12 1017.19 1017.41 1017.65 1017.87 1018.05 1018.22 1018.36 1018.47 1018.54 1018.63
Thickness
5606 5600 5597 5594 5595 5595 5594 5593 5592 5591 5588 5587 5585 5582 5579 5578 5576 5575 5581 5582 5575 5573 5573 5576 5574 5563 5554 5550 5545 5545 5539 5531 5523 5509 5508 5503 5494 5487 5481 5498 5497 5496 5492 5503 5508 5502 5506 5516 5536 5523 5519 5533 5544 5551
5605 5597 5593 5592 5592 5593 5592 5591 5591 5589 5587 5586 5584 5581 5578 5575 5573 5571 5577 5582 5579 5570 5573 5577 5576 5571 5565 5559 5549 5545 5533 5530 5520 5505 5496 5486 5482 5483 5473 5480 5491 5492 5473 5473 5486 5493 5490 5495 5499 5505 5510 5514 5523 5526
5601 5593 5592 5591 5592 5592 5590 5590 5590 5589 5585 5585 5582 5578 5575 5572 5570 5567 5568 5573 5574 5574 5579 5579 5575 5575 5575 5570 5565 5545 5539 5534 5524 5520 5505 5487 5470 5471 5468 5475 5473 5488 5486 5484 5476 5493 5481 5480 5489 5491 5490 5496 5507 5513
5597 5589 5588 5588 5589 5589 5588 5588 5588 5589 5586 5584 5583 5579 5576 5573 5570 5566 5566 5572 5572 5569 5567 5581 5592 5581 5582 5576 5566 5559 5549 5541 5532 5522 5512 5506 5487 5481 5474 5474 5470 5482 5479 5467 5470 5479 5472 5483 5473 5475 5478 5482 5491 5500
5595 5587 5583 5585 5586 5587 5587 5587 5587 5587 5586 5585 5583 5580 5575 5572 5571 5570 5568 5573 5574 5565 5564 5574 5585 5591 5586 5577 5569 5562 5553 5542 5528 5522 5517 5504 5498 5491 5483 5473 5470 5485 5479 5460 5465 5468 5460 5460 5465 5467 5468 5470 5476 5484
5593 5586 5582 5584 5585 5585 5585 5585 5586 5587 5585 5584 5582 5581 5577 5573 5570 5572 5576 5575 5573 5569 5561 5571 5598 5594 5590 5581 5572 5564 5555 5546 5539 5530 5529 5528 5525 5506 5493 5485 5501 5499 5492 5477 5471 5466 5462 5464 5465 5465 5466 5471 5473 5476
5590 5586 5583 5584 5583 5584 5584 5585 5586 5586 5585 5584 5582 5580 5576 5573 5569 5573 5576 5571 5565 5562 5557 5565 5583 5597 5595 5586 5578 5570 5564 5552 5545 5540 5535 5534 5524 5515 5506 5493 5498 5505 5502 5484 5478 5473 5469 5466 5461 5460 5459 5464 5468 5472
5587 5583 5582 5584 5583 5583 5584 5585 5585 5585 5585 5584 5582 5579 5577 5573 5570 5573 5580 5574 5563 5555 5555 5561 5583 5584 5591 5575 5566 5571 5560 5554 5549 5541 5543 5535 5525 5513 5498 5510 5505 5506 5505 5499 5486 5483 5478 5471 5465 5461 5457 5459 5464 5466
5585 5582 5582 5583 5582 5583 5584 5586 5585 5585 5584 5582 5579 5578 5576 5574 5580 5582 5573 5567 5561 5554 5554 5571 5576 5576 5592 5580 5568 5564 5562 5552 5553 5543 5537 5532 5504 5493 5508 5519 5508 5507 5507 5505 5499 5497 5485 5481 5470 5463 5459 5460 5461 5464
5581 5580 5582 5582 5582 5583 5584 5585 5585 5584 5583 5581 5580 5582 5585 5589 5582 5576 5569 5563 5556 5554 5553 5558 5573 5571 5568 5563 5559 5548 5552 5557 5549 5549 5545 5516 5511 5521 5524 5525 5515 5511 5507 5506 5500 5494 5490 5486 5476 5469 5464 5460 5460 5462
5578 5578 5581 5582 5583 5584 5586 5585 5584 5583 5581 5583 5590 5592 5591 5585 5581 5575 5574 5567 5561 5562 5565 5561 5564 5567 5574 5557 5548 5549 5546 5549 5539 5543 5538 5533 5530 5532 5530 5524 5519 5511 5505 5500 5498 5494 5492 5491 5486 5473 5470 5466 5464 5465
5577 5578 5579 5582 5584 5586 5588 5588 5585 5583 5593 5589 5585 5591 5594 5586 5585 5584 5585 5581 5565 5563 5561 5558 5567 5572 5570 5560 5545 5541 5538 5531 5529 5524 5525 5515 5528 5529 5526 5522 5518 5512 5508 5500 5495 5493 5490 5488 5490 5486 5476 5471 5469 5466
5577 5578 5580 5581 5584 5587 5589 5588 5586 5587 5587 5593 5591 5594 5597 5595 5576 5585 5572 5572 5558 5560 5561 5568 5566 5573 5565 5554 5538 5531 5529 5528 5519 5524 5510 5504 5502 5512 5514 5512 5515 5513 5507 5499 5492 5489 5489 5486 5487 5487 5480 5478 5475 5477
5576 5578 5579 5582 5584 5584 5585 5585 5583 5581 5581 5593 5600 5577 5595 5596 5596 5579 5562 5571 5568 5574 5575 5568 5564 5563 5554 5540 5531 5530 5531 5527 5524 5518 5506 5499 5498 5496 5500 5505 5513 5502 5498 5499 5494 5489 5490 5483 5480 5483 5479 5479 5478 5474
5577 5579 5581 5587 5586 5584 5584 5583 5582 5580 5588 5600 5610 5583 5606 5591 5582 5576 5578 5576 5585 5588 5577 5577 5581 5567 5549 5538 5533 5532 5531 5517 5505 5496 5500 5497 5497 5496 5497 5501 5503 5501 5499 5493 5488 5478 5483 5476 5480 5475 5474 5473 5472 5471
5578 5583 5583 5584 5584 5585 5585 5583 5581 5586 5598 5605 5612 5614 5619 5604 5595 5588 5590 5597 5602 5598 5595 5582 5564 5553 5542 5536 5532 5523 5521 5510 5505 5505 5509 5500 5498 5498 5500 5500 5501 5499 5497 5488 5480 5477 5469 5475 5475 5472 5472 5468 5467 5468
5577 5585 5583 5581 5581 5583 5584 5586 5589 5594 5603 5614 5621 5625 5611 5606 5598 5601 5608 5603 5600 5587 5572 5566 5550 5540 5539 5532 5520 5516 5509 5510 5511 5511 5511 5507 5500 5497 5497 5496 5496 5495 5492 5486 5482 5479 5477 5474 5471 5464 5462 5462 5459 5460
5578 5578 5579 5579 5580 5583 5590 5587 5598 5612 5611 5619 5612 5613 5614 5615 5613 5601 5600 5598 5586 5578 5567 5554 5553 5542 5531 5522 5516 5515 5516 5518 5515 5512 5508 5504 5498 5491 5490 5489 5490 5489 5489 5483 5477 5472 5470 5467 5465 5461 5456 5453 5454 5451
5577 5578 5578 5578 5577 5580 5598 5603 5607 5611 5626 5626 5623 5612 5602 5608 5606 5598 5600 5594 5585 5579 5568 5557 5543 5531 5530 5527 5520 5518 5518 5511 5506 5502 5495 5494 5488 5482 5479 5478 5481 5481 5481 5480 5472 5465 5459 5460 5459 5459 5456 5451 5450 5446
5581 5586 5583 5580 5577 5589 5603 5617 5625 5622 5624 5627 5613 5595 5588 5598 5599 5598 5599 5595 5586 5573 5563 5552 5542 5540 5532 5527 5523 5519 5516 5510 5505 5501 5498 5494 5482 5473 5475 5477 5474 5467 5461 5460 5456 5441 5445 5449 5454 5451 5446 5443 5442 5437
5585 5585 5583 5581 5583 5591 5604 5618 5622 5624 5620 5608 5606 5606 5607 5609 5606 5597 5592 5593 5580 5570 5562 5560 5553 5549 5543 5536 5531 5524 5519 5512 5505 5501 5497 5491 5486 5481 5468 5459 5448 5449 5446 5442 5436 5433 5434 5433 5437 5436 5437 5435 5436 5430
5588 5586 5590 5586 5596 5610 5612 5625 5625 5628 5619 5612 5607 5608 5602 5604 5602 5597 5595 5588 5581 5575 5569 5561 5553 5549 5545 5538 5532 5528 5522 5515 5509 5502 5489 5485 5479 5467 5458 5452 5446 5431 5435 5432 5424 5421 5416 5419 5419 5426 5432 5429 5424 5421
5586 5590 5598 5606 5604 5605 5608 5635 5625 5632 5602 5598 5613 5609 5617 5609 5603 5604 5592 5587 5582 5579 5570 5563 5557 5554 5549 5546 5537 5527 5523 5519 5508 5500 5489 5474 5469 5462 5453 5447 5444 5441 5435 5423 5423 5418 5416 5411 5417 5420 5425 5422 5420 5418
5592 5596 5606 5611 5614 5602 5628 5626 5619 5603 5615 5607 5613 5620 5616 5614 5609 5596 5586 5585 5584 5578 5568 5563 5560 5554 5546 5539 5529 5520 5517 5515 5505 5495 5486 5474 5464 5457 5448 5441 5433 5428 5423 5416 5411 5405 5404 5408 5410 5417 5418 5421 5421 5418
5580 5588 5596 5579 5618 5623 5621 5614 5602 5609 5613 5622 5614 5603 5616 5619 5605 5603 5591 5587 5584 5578 5571 5565 5559 5553 5542 5535 5528 5521 5516 5509 5499 5492 5486 5479 5467 5459 5449 5441 5433 5425 5413 5407 5400 5398 5399 5405 5408 5408 5418 5415 5412 5409
5573 5604 5595 5623 5627 5626 5625 5612 5606 5610 5619 5622 5614 5605 5608 5610 5602 5600 5596 5591 5585 5577 5569 5561 5554 5548 5540 5533 5523 5515 5509 5505 5496 5488 5481 5476 5467 5459 5448 5441 5432 5424 5414 5409 5406 5407 5405 5408 5411 5411 5407 5403 5399 5401
5584 5611 5629 5638 5637 5629 5601 5604 5610 5603 5612 5617 5608 5601 5599 5594 5602 5601 5601 5596 5584 5576 5569 5562 5554 5545 5536 5530 5525 5518 5511 5502 5494 5486 5480 5473 5467 5459 5450 5441 5430 5423 5417 5416 5411 5410 5409 5409 5406 5406 5403 5403 5400 5396
5616 5630 5629 5638 5640 5643 5618 5623 5616 5613 5625 5631 5619 5606 5599 5607 5603 5607 5599 5592 5586 5579 5570 5563 5555 5545 5536 5529 5524 5519 5513 5506 5498 5490 5483 5475 5467 5459 5451 5444 5436 5429 5423 5419 5417 5415 5412 5409 5409 5408 5405 5400 5399 5398
5622 5637 5637 5633 5639 5637 5619 5627 5613 5614 5618 5621 5609 5615 5613 5622 5614 5606 5599 5595 5591 5583 5573 5564 5557 5550 5541 5532 5525 5518 5514 5510 5501 5493 5485 5476 5468 5461 5458 5452 5444 5437 5432 5425 5418 5416 5413 5411 5410 5409 5407 5401 5399 5398
5632 5642 5637 5642 5638 5618 5614 5617 5620 5621 5624 5619 5627 5627 5621 5619 5616 5612 5603 5595 5588 5583 5575 5567 5560 5554 5546 5536 5524 5516 5512 5508 5503 5500 5490 5480 5474 5467 5462 5457 5453 5448 5442 5435 5429 5424 5419 5416 5414 5413 5410 5406 5403 5401
5651 5650 5647 5644 5618 5619 5626 5633 5629 5614 5614 5609 5607 5621 5618 5613 5608 5608 5603 5597 5591 5584 5576 5569 5561 5555 5548 5541 5530 5520 5510 5504 5500 5495 5492 5486 5478 5471 5465 5461 5457 5453 5449 5445 5441 5436 5432 5428 5423 5418 5413 5410 5409 5406
5653 5650 5649 5638 5627 5629 5631 5629 5625 5616 5605 5595 5591 5604 5615 5606 5601 5600 5602 5596 5589 5582 5570 5570 5561 5550 5545 5537 5528 5523 5514 5504 5496 5489 5487 5484 5478 5472 5467 5466 5463 5459 5455 5452 5447 5442 5438 5433 5428 5425 5422 5418 5415 5412
5656 5659 5655 5639 5626 5623 5623 5629 5629 5638 5621 5595 5594 5611 5619 5615 5603 5603 5601 5596 5590 5587 5576 5568 5557 5548 5540 5532 5521 5512 5505 5496 5488 5483 5480 5477 5473 5469 5466 5464 5463 5460 5458 5456 5452 5448 5443 5439 5434 5430 5426 5422 5419 5416